DW8626 Madrid ES current weather conditions

sailwx.info

Wind from 125 at 1 knots gusting 2

Air temperature 13.3° C
Dewpoint 1.6° C

Last reported at 2014-Dec-22 14:15 UTC.
Time now 2014-Dec-22 16:21 UTC

Location: N 40°29' W 003°43'.
View on Google Maps.

See reports from other nearby stations

  
Tides and Currents Weather Stations Pressure Air Temp Water Temp Dewpoint Dewpoint Depression Visibility Wind Speed Wind Dir Waves Ship Positions
date/time (UTC)wind fromknots sea level pressurealtimeterstation pressurevisibilityair tempwater tempwave heightnotes
2014-Dec-22 14:15 125 1 gusting 2 13.3
2014-Dec-22 13:14 109 2 gusting 6 12.8
2014-Dec-22 13:00 125 12.8
2014-Dec-22 12:44 089 0 gusting 6 12.8
2014-Dec-22 11:44 019 11.7
2014-Dec-22 10:45 360 10.0
2014-Dec-22 10:31 026 0 gusting 6 9.4
2014-Dec-22 10:15 086 0 gusting 4 9.4
2014-Dec-22 10:01 089 2 gusting 6 8.9
2014-Dec-22 09:44 037 8.3
2014-Dec-22 09:31 042 8.3
2014-Dec-22 09:15 058 3 gusting 6 7.8
2014-Dec-22 08:47 060 7.2
2014-Dec-22 08:30 058 0 gusting 6 6.7
2014-Dec-22 08:14 058 5 gusting 11 7.2
2014-Dec-22 08:00 075 6.7
2014-Dec-22 07:46 029 2 gusting 6 6.7
2014-Dec-22 07:30 073 6.1
2014-Dec-22 06:59 084 1 gusting 5 6.1
2014-Dec-22 06:44 036 0 gusting 6 6.7
2014-Dec-22 06:32 044 6.1
2014-Dec-22 06:16 069 2 gusting 5 6.7
2014-Dec-22 05:59 065 0 gusting 5 6.7
2014-Dec-22 05:44 089 5 gusting 8 6.1
2014-Dec-22 05:29 045 2 gusting 6 6.1
2014-Dec-22 05:14 068 0 gusting 5 6.1
2014-Dec-22 04:59 054 3 gusting 6 6.1
2014-Dec-22 04:44 079 2 gusting 5 6.1
2014-Dec-22 04:29 053 6.1
2014-Dec-22 04:14 075 6.1
2014-Dec-22 04:02 075 4 gusting 6 6.1
2014-Dec-22 03:46 090 6.1
2014-Dec-22 03:29 050 2 gusting 6 6.7
2014-Dec-22 03:14 096 6.7
2014-Dec-22 02:59 058 7.2
2014-Dec-22 02:44 053 0 gusting 4 7.2
2014-Dec-22 02:29 055 0 gusting 3 7.2
2014-Dec-22 02:14 075 1 gusting 4 7.2
2014-Dec-22 01:59 068 7.2
2014-Dec-22 01:44 051 7.2
2014-Dec-22 01:31 041 7.2
2014-Dec-22 01:16 044 7.2
2014-Dec-22 00:59 065 7.8
2014-Dec-22 00:44 035 4 gusting 7 7.8
2014-Dec-22 00:29 089 7.8
2014-Dec-22 00:14 055 5 gusting 8 7.8
2014-Dec-21 23:59 163 2 gusting 7 7.8
2014-Dec-21 23:44 075 0 gusting 6 7.8
2014-Dec-21 23:29 096 7.8
2014-Dec-21 23:14 068 8.3
2014-Dec-21 23:02 074 8.3
2014-Dec-21 22:46 044 8.9
2014-Dec-21 22:29 086 8.9
2014-Dec-21 22:14 104 9.4
2014-Dec-21 21:59 075 9.4
2014-Dec-21 21:44 044 9.4
2014-Dec-21 21:29 033 8.9
2014-Dec-21 21:14 032 2 gusting 4 9.4
2014-Dec-21 20:59 035 3 gusting 4 10.0
2014-Dec-21 20:44 033 1 gusting 5 10.0
2014-Dec-21 20:16 042 9.4
2014-Dec-21 19:59 026 9.4
2014-Dec-21 19:44 027 9.4
2014-Dec-21 19:29 006 10.0
2014-Dec-21 19:14 018 10.0
2014-Dec-21 18:59 032 10.6
2014-Dec-21 18:44 039 10.6
2014-Dec-21 18:29 044 10.6
2014-Dec-21 18:14 030 3 gusting 3 10.6
2014-Dec-21 17:46 014 11.1
2014-Dec-21 17:29 070 11.7
2014-Dec-21 14:45 117 12.8
2014-Dec-21 13:17 355 3 gusting 6 11.1
2014-Dec-21 13:01 075 5 gusting 7 11.1
2014-Dec-21 10:46 008 8.3
2014-Dec-21 09:44 023 5 gusting 10 6.7
2014-Dec-21 09:31 041 3 gusting 6 6.7
2014-Dec-21 09:15 035 1 gusting 8 6.1
2014-Dec-21 09:00 055 6 gusting 9 6.1
2014-Dec-21 08:45 030 6 gusting 9 5.0
2014-Dec-21 08:15 047 7 gusting 10 5.0
2014-Dec-21 08:04 046 6 gusting 8 5.0
2014-Dec-21 07:31 051 7 gusting 9 5.0
2014-Dec-21 07:15 051 9 gusting 11 4.4
2014-Dec-21 06:59 039 6 gusting 8 4.4
2014-Dec-21 06:44 036 6 gusting 6 5.0
2014-Dec-21 06:29 025 5 gusting 7 5.0
2014-Dec-21 06:14 023 4 gusting 6 5.6
2014-Dec-21 05:59 091 5.6
2014-Dec-21 05:44 028 4 gusting 6 5.6
2014-Dec-21 05:31 043 4 gusting 6 6.1
2014-Dec-21 05:16 039 3 gusting 4 5.6
2014-Dec-21 04:59 001 5.0
2014-Dec-21 04:44 011 1 gusting 4 5.0
2014-Dec-21 04:29 001 5 gusting 5 4.4
2014-Dec-21 04:14 348 4.4
2014-Dec-21 03:59 346 4.4
2014-Dec-21 03:44 301 5.6
2014-Dec-21 03:29 297 6.1
2014-Dec-21 03:14 077 6.7
2014-Dec-21 02:46 039 6.7
2014-Dec-21 02:29 077 6.7
2014-Dec-21 02:14 095 0 gusting 5 6.7
2014-Dec-21 01:59 329 6.7
2014-Dec-21 01:44 049 6.7
2014-Dec-21 01:29 061 2 gusting 5 7.2
2014-Dec-21 01:14 012 7.2
2014-Dec-21 00:59 103 2 gusting 8 7.2
2014-Dec-21 00:44 074 5 gusting 8 7.2
2014-Dec-21 00:32 124 7.8
2014-Dec-21 00:16 081 7.8
2014-Dec-20 23:59 071 3 gusting 5 7.8
2014-Dec-20 23:44 068 7.8
2014-Dec-20 23:29 044 8.3
2014-Dec-20 23:14 066 8.3
2014-Dec-20 22:59 035 0 gusting 7 8.9
2014-Dec-20 22:44 068 8.9
2014-Dec-20 22:29 103 0 gusting 5 9.4
2014-Dec-20 22:14 067 3 gusting 5 9.4
2014-Dec-20 22:01 058 4 gusting 6 9.4
2014-Dec-20 21:29 101 10.0
2014-Dec-20 21:14 043 10.0
2014-Dec-20 20:59 035 8.9
2014-Dec-20 20:44 077 10.0
2014-Dec-20 20:29 084 10.6
2014-Dec-20 20:14 123 11.1
2014-Dec-20 19:59 064 2 gusting 9 11.7
2014-Dec-20 19:44 033 11.1
2014-Dec-20 19:16 036 11.7
2014-Dec-20 18:59 064 11.7
2014-Dec-20 18:44 026 2 gusting 9 11.7
2014-Dec-20 18:29 058 2 gusting 4 12.2
2014-Dec-20 18:14 040 3 gusting 6 12.2
2014-Dec-20 17:59 039 12.8
2014-Dec-20 17:44 032 0 gusting 5 12.8
2014-Dec-20 17:30 056 12.8
2014-Dec-20 17:16 056 13.3
2014-Dec-20 16:31 049 13.9
2014-Dec-20 16:16 033 14.4
2014-Dec-20 16:00 037 15.0